Wind_Speed
9 9 9 10 10 9 9 9 9 10 11 10 10 9 8 8 8 8 8 8 8 9 9 10 10 10 10 10 10 10 10 11 11 11 11 11 11 11 11 11 11 11 12
10 10 10 10 10 10 10 10 10 10 12 11 10 10 9 8 8 9 9 8 9 9 9 10 10 10 11 10 11 11 11 12 12 12 12 12 13 12 13 13 13 13 13
11 11 11 10 10 11 11 11 11 11 11 11 11 11 10 9 9 10 10 10 10 10 10 10 10 11 11 11 11 11 11 12 12 12 12 13 13 14 14 14 14 14 14
13 12 11 11 11 11 12 12 12 12 12 11 11 11 11 10 10 11 11 10 10 11 11 10 10 11 11 12 11 12 12 13 13 13 14 14 14 15 15 15 15 15 15
14 13 13 12 12 12 11 12 12 13 13 12 11 12 12 11 11 12 11 11 11 11 11 11 11 11 12 13 12 12 13 14 13 13 14 15 15 16 16 16 15 16 16
15 15 15 14 14 13 13 12 12 12 12 11 11 11 12 12 12 12 12 12 12 12 12 11 12 12 13 13 14 14 14 14 14 14 14 15 16 16 16 17 17 17 16
16 17 16 16 15 14 13 12 12 12 12 12 12 12 12 13 13 13 13 13 13 13 13 13 12 13 13 14 14 15 14 14 15 15 15 16 16 17 17 17 18 18 18
16 16 16 17 16 14 14 13 13 13 13 13 13 13 12 13 13 13 14 14 14 14 14 14 13 14 14 15 15 15 15 15 15 16 16 17 17 18 18 18 18 19 19
17 17 16 16 16 14 14 14 14 14 13 14 14 14 13 13 14 14 14 15 15 15 15 15 14 15 15 16 16 16 16 16 16 16 17 17 17 18 18 18 18 18 19
17 17 16 17 16 15 14 14 15 14 14 14 14 14 14 14 15 15 15 15 15 15 15 15 15 16 16 16 16 17 17 17 18 17 17 18 18 18 18 19 19 19 20
17 17 17 17 16 15 15 15 15 16 16 15 15 15 14 15 15 15 15 15 15 16 16 16 17 17 16 16 17 18 18 19 19 18 18 18 19 19 20 20 21 21 21
18 18 17 17 17 17 16 16 16 17 17 17 16 16 15 16 16 16 16 16 16 16 17 17 18 18 18 18 18 19 19 19 19 19 19 19 20 20 21 21 22 22 23
18 18 18 18 18 17 17 17 18 18 18 18 18 18 17 17 17 17 16 16 16 17 17 17 18 19 20 20 20 20 20 20 20 20 21 21 21 22 22 22 22 22 23
19 19 20 20 19 19 19 19 19 19 19 19 19 19 19 18 18 18 18 18 18 18 18 18 19 19 20 21 21 21 21 21 21 21 22 22 22 22 23 23 23 22 23
18 19 20 20 20 20 20 20 21 20 20 20 19 19 19 19 19 20 20 20 19 18 19 20 20 20 21 21 21 21 20 21 21 22 22 22 23 23 23 23 24 24 24
18 18 18 20 20 20 21 21 21 21 21 21 21 20 20 20 20 21 20 20 20 20 20 21 21 22 22 21 21 21 21 21 21 21 21 22 22 22 23 24 24 24 25
18 18 19 20 21 21 22 22 22 21 21 22 22 22 22 22 21 21 20 21 21 21 21 21 22 22 22 22 22 22 21 21 21 21 22 22 22 22 22 22 23 24 25
19 19 20 21 22 22 21 21 21 22 22 23 23 23 23 23 23 23 22 22 23 23 22 23 23 22 22 22 22 22 21 21 22 21 21 21 22 22 22 22 22 23 24
19 19 20 21 22 22 21 21 22 22 22 23 23 24 24 23 23 23 24 24 24 24 23 23 23 22 23 23 22 22 22 22 21 21 21 21 21 22 22 23 23 23 24
20 20 20 21 22 22 22 22 23 24 23 23 23 24 23 23 24 24 24 24 24 24 24 24 24 23 23 23 23 22 22 22 22 21 21 21 22 22 22 23 23 23 23
20 20 20 20 21 22 23 23 23 24 24 24 24 23 23 24 24 25 25 25 25 25 25 25 25 24 24 24 23 23 22 22 22 22 22 22 22 23 23 24 24 24 24
20 20 19 20 21 22 22 22 23 23 24 25 25 24 24 24 24 25 25 25 25 25 25 25 25 25 25 24 24 23 23 23 23 23 23 23 23 24 24 24 24 24 25
20 20 19 19 20 21 22 22 23 23 23 25 25 25 25 25 25 25 25 25 25 26 26 26 25 25 25 24 24 24 24 24 23 23 23 23 23 23 24 24 24 24 25
21 21 20 20 21 21 22 23 24 24 24 24 24 25 25 25 25 25 25 25 26 26 26 26 26 26 25 24 24 24 24 24 23 23 23 23 24 24 24 24 24 25 25
20 21 20 21 22 23 23 23 24 24 24 24 24 25 25 26 26 27 26 26 26 26 26 26 26 26 26 25 25 24 24 24 24 24 24 24 24 25 25 25 25 25 26
21 21 21 22 23 24 24 24 24 24 25 25 25 26 26 26 26 27 27 27 27 27 27 26 26 26 26 26 25 25 25 25 25 25 25 25 25 25 25 25 26 26 26
Wind_Direction
269 271 271 267 261 261 261 258 258 256 256 255 256 259 259 258 259 263 264 263 261 263 268 265 264 264 261 262 264 264 266 266 264 259 259 260 259 255 254 254 255 253 255
268 267 268 265 260 260 261 260 259 258 258 258 256 255 254 252 261 269 268 267 264 265 269 270 268 265 263 263 264 267 267 265 265 261 259 258 258 258 257 257 258 256 256
262 262 264 266 262 261 262 261 257 261 262 257 253 257 260 258 266 271 276 274 269 268 271 271 271 268 267 266 265 267 269 268 266 263 259 257 257 260 261 260 261 258 258
258 258 261 260 260 261 262 261 256 257 259 256 251 255 261 262 266 273 278 275 270 268 269 269 270 269 267 267 266 268 268 269 268 264 261 258 257 259 260 261 261 260 261
254 255 257 260 261 262 263 259 255 255 256 254 254 255 258 262 268 273 279 279 276 272 272 271 271 272 270 267 268 269 270 271 269 267 264 260 260 259 258 259 260 260 260
253 253 254 257 257 261 262 257 252 253 254 254 253 254 258 261 267 268 271 275 276 276 276 275 274 273 273 271 271 271 271 271 270 268 266 263 261 260 257 256 259 260 259
254 251 251 256 259 259 255 255 253 253 254 253 252 255 259 262 265 266 267 270 273 275 275 275 275 274 274 274 275 275 273 272 271 270 268 266 263 261 259 259 259 260 259
254 250 251 254 254 253 250 255 253 252 253 251 252 254 257 259 262 264 264 267 270 273 276 275 276 276 276 278 278 276 274 273 273 271 269 267 264 262 262 262 261 261 260
253 250 250 250 250 250 249 249 252 252 251 251 251 254 257 260 262 264 265 266 269 272 275 276 277 278 279 280 278 276 274 273 274 272 270 267 265 263 263 263 263 265 264
256 251 250 248 250 247 245 246 249 249 250 253 254 256 258 261 264 266 267 268 270 271 274 276 279 280 280 281 281 278 277 276 275 274 271 268 265 264 265 265 265 267 267
256 252 248 248 249 246 246 246 247 246 248 253 258 259 261 262 264 266 266 267 270 271 273 275 277 279 280 283 282 279 278 277 275 273 271 268 266 266 267 269 269 268 268
252 250 248 246 248 248 248 246 246 246 248 253 256 259 263 264 265 268 269 267 269 270 272 274 276 277 279 283 284 281 279 278 276 275 273 269 268 268 268 269 269 269 270
252 250 246 245 246 248 248 247 248 249 252 255 257 261 263 263 266 268 270 269 272 273 274 276 275 277 279 281 282 281 279 278 276 275 273 270 270 269 268 269 270 269 270
251 251 249 248 246 247 247 249 252 254 254 255 258 260 261 263 264 266 268 271 273 274 276 277 277 279 280 282 282 282 281 279 276 274 272 271 270 270 269 269 271 270 270
253 251 246 245 246 248 250 251 254 255 255 255 257 261 262 264 265 268 270 272 274 275 276 276 277 279 281 282 282 281 281 279 278 276 273 271 271 269 270 271 270 270 270
254 250 246 245 245 248 251 254 255 254 255 257 258 258 261 264 265 267 269 271 275 278 279 279 278 280 281 283 282 281 280 279 278 277 276 273 272 272 271 271 270 270 271
254 251 250 249 249 251 253 254 254 256 257 259 258 259 262 264 266 268 269 271 274 277 280 279 280 281 283 284 284 283 282 279 277 275 275 274 273 273 273 272 272 272 273
255 254 254 255 254 254 255 255 257 258 258 257 258 260 261 264 266 268 270 272 274 276 278 280 279 280 281 284 283 282 281 279 277 275 275 274 273 272 272 272 273 274 275
256 257 258 258 256 256 257 258 259 259 259 257 258 260 262 264 266 269 271 272 274 275 278 278 279 279 280 282 281 281 280 279 277 275 275 275 275 274 274 273 275 276 276
259 260 261 260 260 259 259 261 261 260 259 260 259 260 262 264 266 269 271 272 272 274 276 278 278 279 279 280 279 279 278 278 276 276 276 276 277 276 276 277 278 278 278
262 261 262 260 260 261 261 262 263 261 259 261 261 260 262 264 266 269 272 272 273 274 275 276 277 278 279 279 278 276 276 277 276 275 276 277 277 277 277 278 279 279 279
265 263 262 263 262 262 262 261 263 263 262 262 262 262 262 264 266 269 272 273 274 275 276 276 276 276 279 278 277 276 275 275 276 275 275 276 277 277 277 278 279 279 280
267 265 265 265 262 261 262 262 262 264 264 265 265 264 264 266 268 270 273 274 275 276 276 275 274 274 276 277 277 277 276 275 275 275 275 275 276 277 278 279 279 280 281
267 266 266 264 264 264 264 264 264 264 264 265 265 266 266 267 268 270 273 274 276 277 277 276 273 273 274 275 275 277 275 274 274 274 274 275 276 278 279 280 281 282 283
269 267 266 265 265 265 266 266 266 266 266 264 264 265 266 268 269 271 272 275 276 278 278 275 273 272 272 274 275 276 275 274 274 274 274 275 276 278 280 281 282 283 284
269 268 268 268 266 265 265 266 267 268 267 265 265 265 267 268 270 271 272 275 276 277 277 274 272 272 272 273 274 274 274 274 275 275 276 277 278 279 279 281 282 284 285
Height
5861 5861 5861 5862 5862 5863 5863 5864 5865 5865 5866 5867 5867 5868 5868 5869 5869 5870 5870 5870 5870 5871 5871 5871 5871 5872 5872 5872 5873 5873 5874 5874 5874 5875 5875 5876 5876 5877 5877 5878 5879 5879 5880
5858 5859 5859 5860 5860 5860 5861 5862 5863 5863 5864 5864 5865 5866 5866 5867 5867 5868 5868 5868 5868 5868 5868 5868 5869 5869 5869 5870 5870 5871 5871 5871 5871 5872 5872 5873 5873 5874 5875 5875 5876 5876 5877
5855 5856 5857 5857 5858 5858 5859 5860 5860 5861 5861 5862 5863 5863 5864 5865 5865 5866 5866 5866 5866 5866 5866 5866 5866 5866 5867 5867 5867 5868 5868 5868 5868 5869 5869 5870 5870 5871 5871 5872 5873 5873 5874
5852 5853 5854 5855 5855 5855 5856 5857 5857 5858 5859 5860 5860 5861 5862 5862 5863 5863 5863 5863 5863 5863 5864 5864 5863 5864 5864 5864 5864 5865 5865 5865 5865 5866 5866 5867 5867 5868 5868 5869 5869 5870 5871
5849 5850 5851 5851 5852 5853 5853 5854 5855 5855 5856 5857 5858 5858 5859 5859 5860 5860 5861 5861 5861 5861 5860 5860 5860 5860 5860 5861 5861 5861 5861 5862 5862 5862 5863 5863 5864 5864 5865 5865 5866 5866 5867
5845 5846 5847 5848 5849 5850 5850 5851 5852 5852 5853 5854 5855 5855 5856 5857 5857 5857 5858 5858 5858 5857 5857 5857 5857 5857 5857 5857 5857 5858 5858 5858 5858 5858 5859 5859 5860 5860 5861 5861 5862 5862 5863
5841 5842 5843 5844 5845 5846 5847 5848 5849 5849 5850 5851 5852 5853 5853 5854 5854 5854 5854 5854 5854 5854 5854 5854 5854 5854 5854 5854 5854 5853 5853 5854 5854 5854 5855 5855 5855 5856 5857 5857 5857 5858 5858
5837 5838 5839 5840 5841 5842 5843 5844 5845 5846 5847 5848 5849 5849 5850 5851 5850 5851 5851 5851 5851 5851 5851 5851 5850 5850 5850 5850 5850 5849 5849 5850 5850 5850 5850 5850 5851 5851 5852 5852 5853 5853 5854
5832 5834 5835 5836 5837 5838 5839 5840 5842 5843 5844 5845 5845 5846 5846 5847 5847 5847 5847 5847 5847 5847 5847 5847 5847 5846 5846 5846 5845 5845 5845 5845 5845 5845 5846 5846 5846 5846 5847 5847 5848 5848 5848
5828 5829 5830 5832 5833 5835 5836 5836 5838 5839 5840 5841 5842 5842 5843 5843 5843 5843 5843 5843 5843 5842 5842 5842 5842 5842 5842 5841 5841 5841 5840 5840 5840 5840 5841 5841 5841 5841 5842 5842 5843 5843 5843
5824 5825 5826 5827 5829 5830 5831 5833 5834 5835 5836 5837 5838 5838 5838 5839 5839 5839 5839 5839 5839 5838 5838 5838 5838 5838 5837 5837 5836 5836 5836 5835 5835 5835 5835 5836 5836 5836 5837 5837 5837 5838 5838
5819 5820 5821 5823 5824 5826 5827 5828 5829 5830 5832 5833 5834 5834 5834 5835 5835 5835 5835 5835 5835 5835 5834 5834 5834 5833 5833 5833 5832 5831 5831 5831 5830 5830 5830 5830 5830 5831 5831 5832 5832 5832 5832
5814 5815 5816 5818 5820 5821 5822 5824 5825 5826 5827 5828 5829 5830 5830 5830 5831 5831 5831 5831 5830 5830 5830 5829 5829 5828 5828 5828 5827 5827 5826 5825 5825 5825 5825 5825 5825 5825 5825 5826 5825 5825 5826
5809 5810 5811 5813 5815 5816 5818 5819 5820 5821 5822 5823 5824 5825 5825 5826 5826 5826 5827 5826 5826 5826 5825 5825 5824 5823 5823 5822 5822 5821 5820 5820 5819 5819 5819 5819 5819 5819 5819 5819 5820 5819 5820
5803 5804 5805 5807 5809 5811 5812 5814 5815 5816 5817 5818 5819 5820 5820 5821 5821 5821 5821 5821 5822 5821 5821 5820 5819 5818 5817 5817 5816 5815 5814 5814 5813 5813 5813 5813 5813 5813 5813 5813 5813 5813 5813
5798 5798 5799 5802 5803 5805 5807 5808 5809 5810 5811 5813 5813 5814 5815 5816 5816 5816 5816 5816 5816 5816 5816 5815 5814 5813 5812 5811 5810 5809 5808 5808 5807 5807 5807 5807 5807 5806 5807 5807 5806 5806 5806
5793 5793 5795 5796 5798 5799 5801 5802 5803 5804 5805 5806 5808 5809 5809 5810 5810 5810 5811 5811 5811 5811 5810 5809 5808 5807 5806 5805 5804 5803 5802 5802 5801 5801 5801 5801 5801 5800 5800 5800 5800 5800 5799
5788 5788 5790 5791 5792 5793 5794 5796 5797 5798 5799 5800 5802 5802 5803 5804 5804 5805 5805 5805 5805 5804 5804 5803 5802 5801 5800 5799 5798 5797 5796 5796 5795 5795 5795 5794 5794 5794 5794 5794 5794 5793 5793
5783 5783 5784 5785 5786 5787 5789 5790 5791 5792 5793 5794 5795 5796 5797 5797 5798 5798 5798 5798 5798 5798 5797 5797 5796 5795 5794 5793 5792 5791 5790 5790 5789 5789 5789 5788 5788 5788 5788 5787 5787 5786 5786
5777 5778 5778 5779 5780 5781 5782 5783 5784 5785 5786 5787 5788 5789 5790 5791 5791 5791 5792 5791 5791 5791 5790 5790 5789 5788 5787 5786 5786 5785 5784 5784 5783 5783 5783 5782 5782 5782 5781 5781 5781 5780 5779
5771 5772 5772 5773 5773 5774 5776 5777 5778 5779 5780 5781 5781 5782 5783 5784 5784 5785 5785 5784 5784 5783 5783 5782 5782 5781 5780 5779 5779 5778 5778 5777 5777 5776 5776 5776 5776 5775 5774 5774 5774 5773 5772
5766 5766 5766 5767 5767 5768 5769 5770 5771 5772 5773 5774 5775 5775 5776 5777 5777 5777 5777 5777 5776 5776 5775 5775 5774 5774 5773 5772 5771 5771 5771 5771 5770 5771 5770 5769 5769 5768 5768 5767 5767 5766 5765
5760 5760 5760 5761 5761 5762 5763 5764 5764 5765 5766 5767 5767 5768 5769 5769 5770 5770 5770 5769 5769 5768 5768 5767 5767 5767 5766 5765 5764 5764 5764 5763 5763 5763 5763 5762 5762 5761 5761 5760 5760 5759 5758
5754 5754 5754 5755 5755 5756 5756 5757 5758 5758 5759 5760 5760 5761 5761 5762 5762 5762 5762 5762 5761 5761 5760 5760 5760 5759 5759 5758 5757 5757 5756 5757 5756 5756 5756 5755 5755 5754 5754 5753 5753 5752 5751
5748 5748 5748 5748 5749 5749 5750 5750 5750 5751 5752 5752 5753 5753 5754 5754 5755 5755 5755 5754 5754 5753 5752 5751 5751 5751 5751 5751 5750 5750 5750 5749 5749 5749 5748 5748 5748 5747 5747 5746 5745 5744 5743
5742 5742 5742 5742 5742 5743 5743 5743 5743 5744 5744 5745 5745 5746 5746 5746 5747 5746 5747 5746 5746 5745 5744 5743 5743 5743 5743 5743 5743 5742 5742 5742 5742 5742 5741 5741 5740 5740 5740 5739 5738 5736 5735